Home   Weather   Grand Rapids   Past weeks

Flag for USA Past Weather in Grand Rapids, Michigan, USA — Yesterday and Last 2 Weeks

Now
48 °F

Fog.


Feels Like: 47 °F
Forecast: 48 / 78 °F
Wind: 3 mph from Southwest

Location: Kent County International Airport

Current Time: May 23, 2018 at 8:48:15 am

Latest Report: May 23, 2018 at 7:53 am


Visibility: 0 mi

Pressure: 30.18 "Hg

Humidity: 100%

Dew Point: 48 °F

Location of Grand RapidsLocation

Past Weather in Grand Rapids — Graph

°F

Grand Rapids Temperature Yesterday

Maximum temperature yesterday: 64 °F (at 6:53 pm)
Minimum temperature yesterday: 51 °F (at 11:53 pm)
Average temperature yesterday: 57 °F

High & Low Weather Summary for the Past Weeks

 TemperatureHumidityPressure
High79 °F (May 8, 2:53 pm)100% (May 14, 6:23 am)30.22 "Hg (May 14, 6:23 am)
Low40 °F (May 11, 10:53 am)26% (May 16, 6:53 pm)29.59 "Hg (May 9, 8:53 pm)
Average58 °F77%30.01 "Hg
* Reported May 8 6:53 am — May 23 6:53 am, Grand Rapids. Weather by CustomWeather, © 2018

Note: Actual official high and low records may vary slightly from our data, if they occured in-between our weather recording intervals... More about our weather records

Advertising

Grand Rapids Weather History for the Previous 24 Hours

Scroll right to see more
 ConditionsComfort  
Time TempWeatherWind HumidityBarometerVisibility
6:53 am
Wed, May 23
48 °FFog.No wind100%30.16 "Hg0 mi
5:53 am48 °FFog.No wind100%30.14 "Hg0 mi
4:53 am49 °FFog.No wind100%30.13 "Hg0 mi
3:53 am48 °FFog.5 mph100%30.11 "Hg0 mi
3:40 am48 °FFog.5 mph100%30.10 "Hg0 mi
3:22 am48 °FFog.6 mph96%30.11 "Hg1 mi
2:53 am49 °FFog.No wind97%30.09 "Hg3 mi
1:53 am49 °FFog.5 mph97%30.09 "Hg5 mi
12:53 am51 °FClear.5 mph92%30.09 "Hg7 mi
11:53 pm
Tue, May 22
51 °FClear.3 mph96%30.09 "Hg9 mi
10:53 pm53 °FClear.8 mph93%30.07 "Hg10 mi
9:53 pm55 °FClear.8 mph90%30.05 "Hg10 mi
8:53 pm60 °FPassing clouds.7 mph80%30.03 "Hg10 mi
7:53 pm63 °FPartly sunny.8 mph78%30.03 "Hg10 mi
6:53 pm64 °FPartly sunny.8 mph78%30.03 "Hg10 mi
5:53 pm63 °FOvercast.9 mph81%30.02 "Hg10 mi
4:53 pm63 °FOvercast.8 mph81%30.02 "Hg10 mi
3:53 pm62 °FOvercast.9 mph83%30.02 "Hg10 mi
2:53 pm63 °FOvercast.8 mph84%30.02 "Hg10 mi
1:53 pm61 °FLow clouds.6 mph90%30.03 "Hg8 mi
1:03 pm60 °FFog.8 mph90%30.03 "Hg3 mi
11:53 am59 °FFog.6 mph93%30.02 "Hg4 mi
10:53 am59 °FFog.6 mph93%30.00 "Hg2 mi
10:18 am58 °FFog.No wind97%30.00 "Hg2 mi
9:35 am55 °FDrizzle. Fog.No wind100%30.00 "Hg1 mi
8:53 am54 °FDrizzle. Fog.5 mph100%30.00 "Hg1 mi
Weather by CustomWeather, © 2018

See weather overview